STARLINK-31889 (59847 NORAD) Tracking and Keplerian Element Data

This shows tracking and keplerian element data for the satellite.

Feedback or suggestion? Click here.




ElementValue
Catalog59847
NameSTARLINK-31889
Epoch Orbit370
Epoch Day160.16667824
Epoch Year2024
RAAN318.6228
Inclination43.0008
Eccentricity0.0001983
Argument of Perigee282.4551
Mean Anonmoly85.7187
Mean Motion15.66662284
Decay Rate-0.01738587
L11 59847U 24097N 24160.16667824 -.01738587 00000+0 -18340-1 0 9995
L22 59847 43.0008 318.6228 0001983 282.4551 85.7187 15.66662284 3700



Live tracking and technical data element details for STARLINK-31889 (NORAD 59847). STARLINK-31889 can be tracked NOW for your location showing map with azimuth and elevation plus other details from your city location.







IsCatalogInMostPopularTable: catalog: 59847, numindb: 8
Update: records affected: 1



GetName: 59847 STARLINK-31889

Hit Count: updated at: Thu, 25 Jul 2024 01:07:12 GMT